Year,Month,Day,Hour,Minute,Value (Times are PST for temperature in C)
2019,10,30,00,00,2.30
2019,10,30,00,01,2.30
2019,10,30,00,02,2.30
2019,10,30,00,03,2.30
2019,10,30,00,04,2.30
2019,10,30,00,05,2.30
2019,10,30,00,06,2.30
2019,10,30,00,07,2.30
2019,10,30,00,08,2.30
2019,10,30,00,09,2.30
2019,10,30,00,10,2.30
2019,10,30,00,11,2.30
2019,10,30,00,12,2.30
2019,10,30,00,13,2.30
2019,10,30,00,14,2.30
2019,10,30,00,15,2.30
2019,10,30,00,16,2.30
2019,10,30,00,17,2.30
2019,10,30,00,18,2.20
2019,10,30,00,19,2.20
2019,10,30,00,20,2.10
2019,10,30,00,21,2.10
2019,10,30,00,22,2.10
2019,10,30,00,23,2.10
2019,10,30,00,24,2.10
2019,10,30,00,25,2.10
2019,10,30,00,26,2.10
2019,10,30,00,27,2.10
2019,10,30,00,28,2.10
2019,10,30,00,29,2.10
2019,10,30,00,30,2.10
2019,10,30,00,31,2.20
2019,10,30,00,32,2.20
2019,10,30,00,33,2.20
2019,10,30,00,34,2.20
2019,10,30,00,35,2.10
2019,10,30,00,36,2.10
2019,10,30,00,37,2.10
2019,10,30,00,38,2.10
2019,10,30,00,39,2.10
2019,10,30,00,40,2.10
2019,10,30,00,41,2.10
2019,10,30,00,42,2.10
2019,10,30,00,43,2.10
2019,10,30,00,44,2.10
2019,10,30,00,45,2.10
2019,10,30,00,46,2.00
2019,10,30,00,47,2.10
2019,10,30,00,48,2.00
2019,10,30,00,49,2.00
2019,10,30,00,50,1.90
2019,10,30,00,51,1.90
2019,10,30,00,52,1.90
2019,10,30,00,53,1.90
2019,10,30,00,54,1.90
2019,10,30,00,55,1.90
2019,10,30,00,56,1.90
2019,10,30,00,57,1.90
2019,10,30,00,58,1.90
2019,10,30,00,59,1.90
2019,10,30,01,00,1.90
2019,10,30,01,01,1.90
2019,10,30,01,02,1.90
2019,10,30,01,03,1.90
2019,10,30,01,04,1.90
2019,10,30,01,05,1.90
2019,10,30,01,06,1.90
2019,10,30,01,07,1.90
2019,10,30,01,08,1.90
2019,10,30,01,09,1.80
2019,10,30,01,10,1.80
2019,10,30,01,11,1.80
2019,10,30,01,12,1.80
2019,10,30,01,13,1.80
2019,10,30,01,14,1.80
2019,10,30,01,15,1.80
2019,10,30,01,16,1.80
2019,10,30,01,17,1.80
2019,10,30,01,18,1.80
2019,10,30,01,19,1.80
2019,10,30,01,20,1.80
2019,10,30,01,21,1.80
2019,10,30,01,22,1.80
2019,10,30,01,23,1.80
2019,10,30,01,24,1.80
2019,10,30,01,25,1.80
2019,10,30,01,26,1.80
2019,10,30,01,27,1.80
2019,10,30,01,28,1.90
2019,10,30,01,29,1.90
2019,10,30,01,30,1.90
2019,10,30,01,31,1.90
2019,10,30,01,32,1.90
2019,10,30,01,33,1.90
2019,10,30,01,34,1.90
2019,10,30,01,35,1.90
2019,10,30,01,36,1.90
2019,10,30,01,37,1.90
2019,10,30,01,38,1.90
2019,10,30,01,39,1.90
2019,10,30,01,40,1.90
2019,10,30,01,41,1.80
2019,10,30,01,42,1.80
2019,10,30,01,43,1.80
2019,10,30,01,44,1.80
2019,10,30,01,45,1.80
2019,10,30,01,46,1.70
2019,10,30,01,47,1.70
2019,10,30,01,48,1.70
2019,10,30,01,49,1.70
2019,10,30,01,50,1.70
2019,10,30,01,51,1.70
2019,10,30,01,52,1.70
2019,10,30,01,53,1.70
2019,10,30,01,54,1.70
2019,10,30,01,55,1.70
2019,10,30,01,56,1.70
2019,10,30,01,57,1.70
2019,10,30,01,58,1.70
2019,10,30,01,59,1.70
2019,10,30,02,00,1.80
2019,10,30,02,01,1.80
2019,10,30,02,02,1.80
2019,10,30,02,03,1.80
2019,10,30,02,04,1.80
2019,10,30,02,05,1.80
2019,10,30,02,06,1.80
2019,10,30,02,07,1.70
2019,10,30,02,08,1.70
2019,10,30,02,09,1.70
2019,10,30,02,10,1.80
2019,10,30,02,11,1.80
2019,10,30,02,12,1.80
2019,10,30,02,13,1.80
2019,10,30,02,14,1.80
2019,10,30,02,15,1.80
2019,10,30,02,16,1.80
2019,10,30,02,17,1.80
2019,10,30,02,18,1.80
2019,10,30,02,19,1.80
2019,10,30,02,20,1.80
2019,10,30,02,21,1.80
2019,10,30,02,22,1.80
2019,10,30,02,23,1.80
2019,10,30,02,24,1.90
2019,10,30,02,25,1.80
2019,10,30,02,26,1.80
2019,10,30,02,27,1.80
2019,10,30,02,28,1.80
2019,10,30,02,29,1.80
2019,10,30,02,30,1.80
2019,10,30,02,31,1.70
2019,10,30,02,32,1.70
2019,10,30,02,33,1.70
2019,10,30,02,34,1.70
2019,10,30,02,35,1.70
2019,10,30,02,36,1.70
2019,10,30,02,37,1.70
2019,10,30,02,38,1.70
2019,10,30,02,39,1.70
2019,10,30,02,40,1.80
2019,10,30,02,41,1.80
2019,10,30,02,42,1.80
2019,10,30,02,43,1.80
2019,10,30,02,44,1.80
2019,10,30,02,45,1.70
2019,10,30,02,46,1.70
2019,10,30,02,47,1.70
2019,10,30,02,48,1.60
2019,10,30,02,49,1.60
2019,10,30,02,50,1.60
2019,10,30,02,51,1.60
2019,10,30,02,52,1.60
2019,10,30,02,53,1.60
2019,10,30,02,54,1.60
2019,10,30,02,55,1.70
2019,10,30,02,56,1.70
2019,10,30,02,57,1.70
2019,10,30,02,58,1.70
2019,10,30,02,59,1.70
2019,10,30,03,00,1.70
2019,10,30,03,01,1.70
2019,10,30,03,02,1.70
2019,10,30,03,03,1.70
2019,10,30,03,04,1.70
2019,10,30,03,05,1.80
2019,10,30,03,06,1.70
2019,10,30,03,07,1.70
2019,10,30,03,08,1.70
2019,10,30,03,09,1.70
2019,10,30,03,10,1.70
2019,10,30,03,11,1.70
2019,10,30,03,12,1.70
2019,10,30,03,13,1.60
2019,10,30,03,14,1.60
2019,10,30,03,15,1.60
2019,10,30,03,16,1.70
2019,10,30,03,17,1.70
2019,10,30,03,18,1.70
2019,10,30,03,19,1.60
2019,10,30,03,20,1.60
2019,10,30,03,21,1.60
2019,10,30,03,22,1.60
2019,10,30,03,23,1.60
2019,10,30,03,24,1.60
2019,10,30,03,25,1.60
2019,10,30,03,26,1.60
2019,10,30,03,27,1.60
2019,10,30,03,28,1.60
2019,10,30,03,29,1.60
2019,10,30,03,30,1.60
2019,10,30,03,31,1.70
2019,10,30,03,32,1.70
2019,10,30,03,33,1.70
2019,10,30,03,34,1.70
2019,10,30,03,35,1.70
2019,10,30,03,36,1.70
2019,10,30,03,37,1.70
2019,10,30,03,38,1.70
2019,10,30,03,39,1.70
2019,10,30,03,40,1.60
2019,10,30,03,41,1.60
2019,10,30,03,42,1.60
2019,10,30,03,43,1.60
2019,10,30,03,44,1.60
2019,10,30,03,45,1.60
2019,10,30,03,46,1.70
2019,10,30,03,47,1.70
2019,10,30,03,48,1.70
2019,10,30,03,49,1.70
2019,10,30,03,50,1.70
2019,10,30,03,51,1.70
2019,10,30,03,52,1.70
2019,10,30,03,53,1.70
2019,10,30,03,54,1.70
2019,10,30,03,55,1.60
2019,10,30,03,56,1.60
2019,10,30,03,57,1.60
2019,10,30,03,58,1.60
2019,10,30,03,59,1.60
2019,10,30,04,00,1.60
2019,10,30,04,01,1.60
2019,10,30,04,02,1.60
2019,10,30,04,03,1.60
2019,10,30,04,04,1.60
2019,10,30,04,05,1.60
2019,10,30,08,37,2.00
2019,10,30,08,38,2.10
2019,10,30,08,39,2.20
2019,10,30,08,40,2.20
2019,10,30,08,41,2.30
2019,10,30,08,42,2.40
2019,10,30,08,43,2.50
2019,10,30,08,44,2.50
2019,10,30,08,45,2.60
2019,10,30,08,46,2.60
2019,10,30,08,47,2.60
2019,10,30,08,48,2.70
2019,10,30,08,49,2.70
2019,10,30,08,50,2.80
2019,10,30,08,51,2.80
2019,10,30,08,52,2.90
2019,10,30,08,53,2.90
2019,10,30,08,54,3.00
2019,10,30,08,55,3.10
2019,10,30,08,56,3.10
2019,10,30,08,57,3.20
2019,10,30,08,58,3.30
2019,10,30,08,59,3.30
2019,10,30,09,00,3.40
2019,10,30,09,01,3.50
2019,10,30,09,02,3.50
2019,10,30,09,03,3.60
2019,10,30,09,04,3.60
2019,10,30,09,05,3.70
2019,10,30,09,06,3.70
2019,10,30,09,07,3.70
2019,10,30,09,08,3.80
2019,10,30,09,09,3.80
2019,10,30,09,10,3.80
2019,10,30,09,11,3.90
2019,10,30,09,12,3.90
2019,10,30,09,13,4.00
2019,10,30,09,14,4.00
2019,10,30,09,15,4.00
2019,10,30,09,16,4.10
2019,10,30,09,17,4.10
2019,10,30,09,18,4.10
2019,10,30,09,19,4.20
2019,10,30,09,20,4.20
2019,10,30,09,21,4.20
2019,10,30,09,22,4.20
2019,10,30,09,23,4.20
2019,10,30,09,24,4.30
2019,10,30,09,25,4.30
2019,10,30,09,26,4.30
2019,10,30,09,27,4.30
2019,10,30,09,28,4.40
2019,10,30,09,29,4.40
2019,10,30,09,30,4.50
2019,10,30,09,31,4.60
2019,10,30,09,32,4.60
2019,10,30,09,33,4.60
2019,10,30,09,34,4.70
2019,10,30,09,35,4.70
2019,10,30,09,36,4.70
2019,10,30,09,37,4.80
2019,10,30,09,38,4.80
2019,10,30,09,39,4.80
2019,10,30,09,40,4.80
2019,10,30,09,41,4.90
2019,10,30,09,42,4.90
2019,10,30,09,43,4.90
2019,10,30,09,44,5.00
2019,10,30,09,45,5.00
2019,10,30,09,46,5.00
2019,10,30,09,47,5.10
2019,10,30,09,48,5.10
2019,10,30,09,49,5.20
2019,10,30,09,50,5.20
2019,10,30,09,51,5.20
2019,10,30,09,52,5.30
2019,10,30,09,53,5.40
2019,10,30,09,54,5.50
2019,10,30,09,55,5.60
2019,10,30,09,56,5.60
2019,10,30,09,57,5.70
2019,10,30,09,58,5.70
2019,10,30,09,59,5.80
2019,10,30,10,00,5.90
2019,10,30,10,01,5.90
2019,10,30,10,02,6.00
2019,10,30,10,03,6.00
2019,10,30,10,04,6.10
2019,10,30,10,05,6.10
2019,10,30,10,06,6.20
2019,10,30,10,07,6.20
2019,10,30,10,08,6.20
2019,10,30,10,09,6.30
2019,10,30,10,10,6.30
2019,10,30,10,11,6.30
2019,10,30,10,12,6.40
2019,10,30,10,13,6.40
2019,10,30,10,14,6.40
2019,10,30,10,15,6.50
2019,10,30,10,16,6.50
2019,10,30,10,17,6.50
2019,10,30,10,18,6.60
2019,10,30,10,19,6.60
2019,10,30,10,20,6.60
2019,10,30,10,21,6.70
2019,10,30,10,22,6.70
2019,10,30,10,23,6.70
2019,10,30,10,24,6.70
2019,10,30,10,25,6.70
2019,10,30,10,26,6.80
2019,10,30,10,27,6.80
2019,10,30,10,28,6.80
2019,10,30,10,29,6.80
2019,10,30,10,30,6.80
2019,10,30,10,31,6.80
2019,10,30,10,32,6.80
2019,10,30,10,33,6.80
2019,10,30,10,34,6.80
2019,10,30,10,35,6.80
2019,10,30,10,36,6.80
2019,10,30,10,37,6.80
2019,10,30,10,38,6.80
2019,10,30,10,39,6.80
2019,10,30,10,40,6.80
2019,10,30,10,41,6.80
2019,10,30,10,42,6.80
2019,10,30,10,43,6.90
2019,10,30,10,44,6.90
2019,10,30,10,45,6.90
2019,10,30,10,46,6.90
2019,10,30,10,47,6.90
2019,10,30,10,48,6.90
2019,10,30,10,49,6.90
2019,10,30,10,50,7.00
2019,10,30,10,51,7.00
2019,10,30,10,52,7.00
2019,10,30,10,53,7.00
2019,10,30,10,54,7.10
2019,10,30,10,55,7.10
2019,10,30,10,56,7.10
2019,10,30,10,57,7.10
2019,10,30,10,58,7.10
2019,10,30,10,59,7.10
2019,10,30,11,00,7.10
2019,10,30,11,01,7.10
2019,10,30,11,02,7.20
2019,10,30,11,03,7.20
2019,10,30,11,04,7.20
2019,10,30,11,05,7.20
2019,10,30,11,06,7.20
2019,10,30,11,07,7.20
2019,10,30,11,08,7.20
2019,10,30,11,09,7.20
2019,10,30,11,10,7.20
2019,10,30,11,11,7.20
2019,10,30,11,12,7.20
2019,10,30,11,13,7.20
2019,10,30,11,14,7.30
2019,10,30,11,15,7.30
2019,10,30,11,16,7.30
2019,10,30,11,17,7.30
2019,10,30,11,18,7.30
2019,10,30,11,19,7.30
2019,10,30,11,20,7.40
2019,10,30,11,21,7.40
2019,10,30,11,22,7.40
2019,10,30,11,23,7.40
2019,10,30,11,24,7.50
2019,10,30,11,25,7.50
2019,10,30,11,26,7.50
2019,10,30,11,27,7.50
2019,10,30,11,28,7.50
2019,10,30,11,29,7.50
2019,10,30,11,30,7.50
2019,10,30,11,31,7.50
2019,10,30,11,32,7.50
2019,10,30,11,33,7.50
2019,10,30,11,34,7.50
2019,10,30,11,35,7.50
2019,10,30,11,36,7.50
2019,10,30,11,37,7.50
2019,10,30,11,38,7.50
2019,10,30,11,39,7.50
2019,10,30,11,40,7.60
2019,10,30,11,41,7.60
2019,10,30,11,42,7.60
2019,10,30,11,43,7.60
2019,10,30,11,44,7.60
2019,10,30,11,45,7.60
2019,10,30,11,46,7.70
2019,10,30,11,47,7.70
2019,10,30,11,48,7.70
2019,10,30,11,49,7.70
2019,10,30,11,50,7.70
2019,10,30,11,51,7.70
2019,10,30,11,52,7.70
2019,10,30,11,53,7.70
2019,10,30,11,54,7.70
2019,10,30,11,55,7.80
2019,10,30,11,56,7.80
2019,10,30,11,57,7.80
2019,10,30,11,58,7.80
2019,10,30,11,59,7.90
2019,10,30,12,00,7.90
2019,10,30,12,01,7.90
2019,10,30,12,02,7.90
2019,10,30,12,03,7.90
2019,10,30,12,04,7.90
2019,10,30,12,05,7.90
2019,10,30,12,06,7.90
2019,10,30,12,07,7.90
2019,10,30,12,08,8.00
2019,10,30,12,09,8.00
2019,10,30,12,10,8.00
2019,10,30,12,11,8.00
2019,10,30,12,12,8.10
2019,10,30,12,13,8.10
2019,10,30,12,14,8.10
2019,10,30,12,15,8.10
2019,10,30,12,16,8.10
2019,10,30,12,17,8.10
2019,10,30,12,18,8.20
2019,10,30,12,19,8.10
2019,10,30,12,20,8.10
2019,10,30,12,21,8.10
2019,10,30,12,22,8.20
2019,10,30,12,23,8.20
2019,10,30,12,24,8.20
2019,10,30,12,25,8.20
2019,10,30,12,26,8.30
2019,10,30,12,27,8.30
2019,10,30,12,28,8.30
2019,10,30,12,29,8.40
2019,10,30,12,30,8.40
2019,10,30,12,31,8.40
2019,10,30,12,32,8.40
2019,10,30,12,33,8.40
2019,10,30,12,34,8.40
2019,10,30,12,35,8.40
2019,10,30,12,36,8.40
2019,10,30,12,37,8.40
2019,10,30,12,38,8.40
2019,10,30,12,39,8.50
2019,10,30,12,40,8.50
2019,10,30,12,41,8.50
2019,10,30,12,42,8.60
2019,10,30,12,43,8.60
2019,10,30,12,44,8.60
2019,10,30,12,45,8.60
2019,10,30,12,46,8.60
2019,10,30,12,47,8.60
2019,10,30,12,48,8.60
2019,10,30,12,49,8.60
2019,10,30,12,50,8.60
2019,10,30,12,51,8.60
2019,10,30,12,52,8.60
2019,10,30,12,53,8.60
2019,10,30,12,54,8.60
2019,10,30,12,55,8.60
2019,10,30,12,56,8.60
2019,10,30,12,57,8.60
2019,10,30,12,58,8.60
2019,10,30,12,59,8.60
2019,10,30,13,00,8.70
2019,10,30,13,01,8.70
2019,10,30,13,02,8.70
2019,10,30,13,03,8.70
2019,10,30,13,04,8.80
2019,10,30,13,05,8.80
2019,10,30,13,06,8.80
2019,10,30,13,07,8.80
2019,10,30,13,08,8.90
2019,10,30,13,09,8.80
2019,10,30,13,10,8.80
2019,10,30,13,11,8.90
2019,10,30,13,12,8.90
2019,10,30,13,13,8.90
2019,10,30,13,14,8.90
2019,10,30,13,15,8.90
2019,10,30,13,16,9.00
2019,10,30,13,17,9.00
2019,10,30,13,18,9.00
2019,10,30,13,19,9.00
2019,10,30,13,20,8.90
2019,10,30,13,21,8.90
2019,10,30,13,22,8.90
2019,10,30,13,23,8.90
2019,10,30,13,24,8.80
2019,10,30,13,25,8.80
2019,10,30,13,26,8.90
2019,10,30,13,27,8.90
2019,10,30,13,28,8.90
2019,10,30,13,29,8.90
2019,10,30,13,30,8.90
2019,10,30,13,31,8.90
2019,10,30,13,32,8.90
2019,10,30,13,33,8.90
2019,10,30,13,34,8.90
2019,10,30,13,35,8.90
2019,10,30,13,36,9.00
2019,10,30,13,37,9.00
2019,10,30,13,38,9.00
2019,10,30,13,39,9.00
2019,10,30,13,40,9.00
2019,10,30,13,41,9.00
2019,10,30,13,42,9.00
2019,10,30,13,43,8.90
2019,10,30,13,44,8.90
2019,10,30,13,45,9.00
2019,10,30,13,46,9.00
2019,10,30,13,47,9.00
2019,10,30,13,48,9.10
2019,10,30,13,49,9.10
2019,10,30,13,50,9.10
2019,10,30,13,51,9.10
2019,10,30,13,52,9.20
2019,10,30,13,53,9.20
2019,10,30,13,54,9.20
2019,10,30,13,55,9.20
2019,10,30,13,56,9.20
2019,10,30,13,57,9.20
2019,10,30,13,58,9.20
2019,10,30,13,59,9.30
2019,10,30,14,00,9.20
2019,10,30,14,01,9.30
2019,10,30,14,02,9.30
2019,10,30,14,03,9.20
2019,10,30,14,04,9.20
2019,10,30,14,05,9.20
2019,10,30,14,06,9.20
2019,10,30,14,07,9.20
2019,10,30,14,08,9.20
2019,10,30,14,09,9.20
2019,10,30,14,10,9.20
2019,10,30,14,11,9.30
2019,10,30,14,12,9.30
2019,10,30,14,13,9.30
2019,10,30,14,14,9.30
2019,10,30,14,15,9.30
2019,10,30,14,16,9.30
2019,10,30,14,17,9.30
2019,10,30,14,18,9.40
2019,10,30,14,19,9.40
2019,10,30,14,20,9.40
2019,10,30,14,21,9.50
2019,10,30,14,22,9.50
2019,10,30,14,23,9.50
2019,10,30,14,24,9.50
2019,10,30,14,25,9.50
2019,10,30,14,26,9.40
2019,10,30,14,27,9.40
2019,10,30,14,28,9.40
2019,10,30,14,29,9.40
2019,10,30,14,30,9.40
2019,10,30,14,31,9.40
2019,10,30,14,32,9.40
2019,10,30,14,33,9.40
2019,10,30,14,34,9.50
2019,10,30,14,35,9.50
2019,10,30,14,36,9.50
2019,10,30,14,37,9.60
2019,10,30,14,38,9.60
2019,10,30,14,39,9.60
2019,10,30,14,40,9.60
2019,10,30,14,41,9.60
2019,10,30,14,42,9.70
2019,10,30,14,43,9.70
2019,10,30,14,44,9.70
2019,10,30,14,45,9.70
2019,10,30,14,46,9.70
2019,10,30,14,47,9.70
2019,10,30,14,48,9.70
2019,10,30,14,49,9.80
2019,10,30,14,50,9.80
2019,10,30,14,51,9.80
2019,10,30,14,52,9.80
2019,10,30,14,53,9.80
2019,10,30,14,54,9.80
2019,10,30,14,55,9.80
2019,10,30,14,56,9.80
2019,10,30,14,57,9.80
2019,10,30,14,58,9.80
2019,10,30,14,59,9.80
2019,10,30,15,00,9.90
2019,10,30,15,01,9.90
2019,10,30,15,02,10.00
2019,10,30,15,03,10.00
2019,10,30,15,04,10.00
2019,10,30,15,05,10.10
2019,10,30,15,06,10.10
2019,10,30,15,07,10.10
2019,10,30,15,08,10.10
2019,10,30,15,09,10.10
2019,10,30,15,10,10.10
2019,10,30,15,11,10.10
2019,10,30,15,12,10.10
2019,10,30,15,13,10.10
2019,10,30,15,14,10.00
2019,10,30,15,15,10.00
2019,10,30,15,16,9.90
2019,10,30,15,17,9.90
2019,10,30,15,18,9.90
2019,10,30,15,19,9.90
2019,10,30,15,20,9.90
2019,10,30,15,21,9.90
2019,10,30,15,22,9.90
2019,10,30,15,23,9.90
2019,10,30,15,24,9.90
2019,10,30,15,25,9.90
2019,10,30,15,26,9.80
2019,10,30,15,27,9.80
2019,10,30,15,28,9.80
2019,10,30,15,29,9.90
2019,10,30,15,30,9.80
2019,10,30,15,31,9.80
2019,10,30,15,32,9.80
2019,10,30,15,33,9.90
2019,10,30,15,34,9.90
2019,10,30,15,35,9.90
2019,10,30,15,36,9.90
2019,10,30,15,37,9.90
2019,10,30,15,38,9.90
2019,10,30,15,39,9.90
2019,10,30,15,40,9.90
2019,10,30,15,41,9.90
2019,10,30,15,42,9.90
2019,10,30,15,43,9.90
2019,10,30,15,44,9.90
2019,10,30,15,45,9.90
2019,10,30,15,46,9.80
2019,10,30,15,47,9.80
2019,10,30,15,48,9.80
2019,10,30,15,49,9.80
2019,10,30,15,50,9.80
2019,10,30,15,51,9.80
2019,10,30,15,52,9.80
2019,10,30,15,53,9.80
2019,10,30,15,54,9.90
2019,10,30,15,55,9.90
2019,10,30,15,56,9.90
2019,10,30,15,57,9.90
2019,10,30,15,58,9.80
2019,10,30,15,59,9.80
2019,10,30,16,00,9.80
2019,10,30,16,01,9.80
2019,10,30,16,02,9.80
2019,10,30,16,03,9.80
2019,10,30,16,04,9.80
2019,10,30,16,05,9.80
2019,10,30,16,06,9.80
2019,10,30,16,07,9.80
2019,10,30,16,08,9.80
2019,10,30,16,09,9.80
2019,10,30,16,10,9.80
2019,10,30,16,11,9.80
2019,10,30,16,12,9.80
2019,10,30,16,13,9.80
2019,10,30,16,14,9.80
2019,10,30,16,15,9.80
2019,10,30,16,16,9.80
2019,10,30,16,17,9.80
2019,10,30,16,18,9.80
2019,10,30,16,19,9.80
2019,10,30,16,20,9.80
2019,10,30,16,21,9.80
2019,10,30,16,22,9.80
2019,10,30,16,23,9.80
2019,10,30,16,24,9.80
2019,10,30,16,25,9.80
2019,10,30,16,26,9.80
2019,10,30,16,27,9.80
2019,10,30,16,28,9.80
2019,10,30,16,29,9.80
2019,10,30,16,30,9.80
2019,10,30,16,31,9.80
2019,10,30,16,32,9.80
2019,10,30,16,33,9.80
2019,10,30,16,34,9.90
2019,10,30,16,35,9.90
2019,10,30,16,36,10.00
2019,10,30,16,37,10.00
2019,10,30,16,38,10.10
2019,10,30,16,39,10.10
2019,10,30,16,40,10.10
2019,10,30,16,41,10.10
2019,10,30,16,42,10.10
2019,10,30,16,43,10.10
2019,10,30,16,44,10.10
2019,10,30,16,45,10.00
2019,10,30,16,46,10.00
2019,10,30,16,47,10.00
2019,10,30,16,48,10.00
2019,10,30,16,49,10.00
2019,10,30,16,50,10.00
2019,10,30,16,51,10.00
2019,10,30,16,52,10.00
2019,10,30,16,53,10.00
2019,10,30,16,54,10.10
2019,10,30,16,55,10.00
2019,10,30,16,56,10.00
2019,10,30,16,57,10.10
2019,10,30,16,58,10.10
2019,10,30,16,59,10.10
2019,10,30,17,00,10.10
2019,10,30,17,01,10.00
2019,10,30,17,02,10.00
2019,10,30,17,03,10.00
2019,10,30,17,04,10.00
2019,10,30,17,05,10.10
2019,10,30,17,06,10.10
2019,10,30,17,07,10.10
2019,10,30,17,08,10.10
2019,10,30,17,09,10.10
2019,10,30,17,10,10.10
2019,10,30,17,11,10.10
2019,10,30,17,12,10.10
2019,10,30,17,13,10.10
2019,10,30,17,14,10.10
2019,10,30,17,15,10.10
2019,10,30,17,16,10.00
2019,10,30,17,17,9.90
2019,10,30,17,18,9.90
2019,10,30,17,19,9.90
2019,10,30,17,20,9.80
2019,10,30,17,21,9.80
2019,10,30,17,22,9.70
2019,10,30,17,23,9.70
2019,10,30,17,24,9.70
2019,10,30,17,25,9.60
2019,10,30,17,26,9.60
2019,10,30,17,27,9.60
2019,10,30,17,28,9.60
2019,10,30,17,29,9.50
2019,10,30,17,30,9.50
2019,10,30,17,31,9.50
2019,10,30,17,32,9.40
2019,10,30,17,33,9.40
2019,10,30,17,34,9.40
2019,10,30,17,35,9.40
2019,10,30,17,36,9.40
2019,10,30,17,37,9.30
2019,10,30,17,38,9.30
2019,10,30,17,39,9.30
2019,10,30,17,40,9.30
2019,10,30,17,41,9.30
2019,10,30,17,42,9.30
2019,10,30,17,43,9.30
2019,10,30,17,44,9.20
2019,10,30,17,45,9.20
2019,10,30,17,46,9.20
2019,10,30,17,47,9.20
2019,10,30,17,48,9.10
2019,10,30,17,49,9.10
2019,10,30,17,50,9.10
2019,10,30,17,51,9.10
2019,10,30,17,52,9.10
2019,10,30,17,53,9.10
2019,10,30,17,54,9.10
2019,10,30,17,55,9.10
2019,10,30,17,56,9.10
2019,10,30,17,57,9.00
2019,10,30,17,58,9.00
2019,10,30,17,59,9.00
2019,10,30,18,00,9.00
2019,10,30,18,01,9.00
2019,10,30,18,02,9.00
2019,10,30,18,03,8.90
2019,10,30,18,04,8.90
2019,10,30,18,05,8.90
2019,10,30,18,06,8.90
2019,10,30,18,07,8.90
2019,10,30,18,08,8.80
2019,10,30,18,09,8.80
2019,10,30,18,10,8.80
2019,10,30,18,11,8.80
2019,10,30,18,12,8.80
2019,10,30,18,13,8.80
2019,10,30,18,14,8.70
2019,10,30,18,15,8.70
2019,10,30,18,16,8.70
2019,10,30,18,17,8.70
2019,10,30,18,18,8.70
2019,10,30,18,19,8.60
2019,10,30,18,20,8.60
2019,10,30,18,21,8.60
2019,10,30,18,22,8.60
2019,10,30,18,23,8.50
2019,10,30,18,24,8.50
2019,10,30,18,25,8.50
2019,10,30,18,26,8.50
2019,10,30,18,27,8.40
2019,10,30,18,28,8.40
2019,10,30,18,29,8.40
2019,10,30,18,30,8.40
2019,10,30,18,31,8.40
2019,10,30,18,32,8.40
2019,10,30,18,33,8.40
2019,10,30,18,34,8.30
2019,10,30,18,35,8.30
2019,10,30,18,36,8.30
2019,10,30,18,37,8.30
2019,10,30,18,38,8.30
2019,10,30,18,39,8.30
2019,10,30,18,40,8.30
2019,10,30,18,41,8.30
2019,10,30,18,42,8.30
2019,10,30,18,43,8.20
2019,10,30,18,44,8.20
2019,10,30,18,45,8.20
2019,10,30,18,46,8.20
2019,10,30,18,47,8.20
2019,10,30,18,48,8.10
2019,10,30,18,49,8.10
2019,10,30,18,50,8.10
2019,10,30,18,51,8.10
2019,10,30,18,52,8.10
2019,10,30,18,53,8.10
2019,10,30,18,54,8.00
2019,10,30,18,55,8.00
2019,10,30,18,56,8.00
2019,10,30,18,57,8.00
2019,10,30,18,58,7.90
2019,10,30,18,59,7.90
2019,10,30,19,00,7.90
2019,10,30,19,01,7.80
2019,10,30,19,02,7.80
2019,10,30,19,03,7.80
2019,10,30,19,04,7.80
2019,10,30,19,05,7.70
2019,10,30,19,06,7.70
2019,10,30,19,07,7.70
2019,10,30,19,08,7.60
2019,10,30,19,09,7.60
2019,10,30,19,10,7.60
2019,10,30,19,11,7.50
2019,10,30,19,12,7.50
2019,10,30,19,13,7.50
2019,10,30,19,14,7.40
2019,10,30,19,15,7.40
2019,10,30,19,16,7.40
2019,10,30,19,17,7.30
2019,10,30,19,18,7.30
2019,10,30,19,19,7.30
2019,10,30,19,20,7.20
2019,10,30,19,21,7.20
2019,10,30,19,22,7.20
2019,10,30,19,23,7.20
2019,10,30,19,24,7.10
2019,10,30,19,25,7.10
2019,10,30,19,26,7.00
2019,10,30,19,27,7.00
2019,10,30,19,28,6.90
2019,10,30,19,29,6.90
2019,10,30,19,30,6.90
2019,10,30,19,31,6.90
2019,10,30,19,32,6.80
2019,10,30,19,33,6.80
2019,10,30,19,34,6.80
2019,10,30,19,35,6.70
2019,10,30,19,36,6.70
2019,10,30,19,37,6.70
2019,10,30,19,38,6.70
2019,10,30,19,39,6.70
2019,10,30,19,40,6.70
2019,10,30,19,41,6.60
2019,10,30,19,42,6.60
2019,10,30,19,43,6.60
2019,10,30,19,44,6.60
2019,10,30,19,45,6.60
2019,10,30,19,46,6.60
2019,10,30,19,47,6.50
2019,10,30,19,48,6.50
2019,10,30,19,49,6.50
2019,10,30,19,50,6.50
2019,10,30,19,51,6.40
2019,10,30,19,52,6.40
2019,10,30,19,53,6.40
2019,10,30,19,54,6.40
2019,10,30,19,55,6.40
2019,10,30,19,56,6.40
2019,10,30,19,57,6.30
2019,10,30,19,58,6.30
2019,10,30,19,59,6.30
2019,10,30,20,00,6.30
2019,10,30,20,01,6.30
2019,10,30,20,02,6.30
2019,10,30,20,03,6.30
2019,10,30,20,04,6.30
2019,10,30,20,05,6.30
2019,10,30,20,06,6.30
2019,10,30,20,07,6.30
2019,10,30,20,08,6.20
2019,10,30,20,09,6.20
2019,10,30,20,10,6.20
2019,10,30,20,11,6.20
2019,10,30,20,12,6.20
2019,10,30,20,13,6.20
2019,10,30,20,14,6.10
2019,10,30,20,15,6.10
2019,10,30,20,16,6.10
2019,10,30,20,17,6.10
2019,10,30,20,18,6.10
2019,10,30,20,19,6.00
2019,10,30,20,20,6.00
2019,10,30,20,21,5.90
2019,10,30,20,22,5.90
2019,10,30,20,23,5.90
2019,10,30,20,24,5.90
2019,10,30,20,25,5.80
2019,10,30,20,26,5.80
2019,10,30,20,27,5.80
2019,10,30,20,28,5.80
2019,10,30,20,29,5.80
2019,10,30,20,30,5.80
2019,10,30,20,31,5.80
2019,10,30,20,32,5.70
2019,10,30,20,33,5.70
2019,10,30,20,34,5.70
2019,10,30,20,35,5.70
2019,10,30,20,36,5.70
2019,10,30,20,37,5.70
2019,10,30,20,38,5.70
2019,10,30,20,39,5.70
2019,10,30,20,40,5.70
2019,10,30,20,41,5.70
2019,10,30,20,42,5.70
2019,10,30,20,43,5.70
2019,10,30,20,44,5.70
2019,10,30,20,45,5.60
2019,10,30,20,46,5.60
2019,10,30,20,47,5.60
2019,10,30,20,48,5.60
2019,10,30,20,49,5.60
2019,10,30,20,50,5.50
2019,10,30,20,51,5.50
2019,10,30,20,52,5.50
2019,10,30,20,53,5.50
2019,10,30,20,54,5.40
2019,10,30,20,55,5.40
2019,10,30,20,56,5.40
2019,10,30,20,57,5.30
2019,10,30,20,58,5.30
2019,10,30,20,59,5.30
2019,10,30,21,00,5.30
2019,10,30,21,01,5.30
2019,10,30,21,02,5.30
2019,10,30,21,03,5.20
2019,10,30,21,04,5.20
2019,10,30,21,05,5.20
2019,10,30,21,06,5.20
2019,10,30,21,07,5.20
2019,10,30,21,08,5.10
2019,10,30,21,09,5.10
2019,10,30,21,10,5.10
2019,10,30,21,11,5.00
2019,10,30,21,12,5.00
2019,10,30,21,13,4.90
2019,10,30,21,14,4.90
2019,10,30,21,15,4.90
2019,10,30,21,16,4.90
2019,10,30,21,17,4.80
2019,10,30,21,18,4.80
2019,10,30,21,19,4.80
2019,10,30,21,20,4.80
2019,10,30,21,21,4.80
2019,10,30,21,22,4.70
2019,10,30,21,23,4.70
2019,10,30,21,24,4.70
2019,10,30,21,25,4.70
2019,10,30,21,26,4.70
2019,10,30,21,27,4.60
2019,10,30,21,28,4.60
2019,10,30,21,29,4.60
2019,10,30,21,30,4.60
2019,10,30,21,31,4.60
2019,10,30,21,32,4.60
2019,10,30,21,33,4.60
2019,10,30,21,34,4.60
2019,10,30,21,35,4.60
2019,10,30,21,36,4.60
2019,10,30,21,37,4.60
2019,10,30,21,38,4.60
2019,10,30,21,39,4.60
2019,10,30,21,40,4.60
2019,10,30,21,41,4.50
2019,10,30,21,42,4.50
2019,10,30,21,43,4.50
2019,10,30,21,44,4.50
2019,10,30,21,45,4.40
2019,10,30,21,46,4.40
2019,10,30,21,47,4.40
2019,10,30,21,48,4.40
2019,10,30,21,49,4.40
2019,10,30,21,50,4.40
2019,10,30,21,51,4.40
2019,10,30,21,52,4.40
2019,10,30,21,53,4.40
2019,10,30,21,54,4.30
2019,10,30,21,55,4.30
2019,10,30,21,56,4.30
2019,10,30,21,57,4.30
2019,10,30,21,58,4.30
2019,10,30,21,59,4.30
2019,10,30,22,00,4.30
2019,10,30,22,01,4.30
2019,10,30,22,02,4.30
2019,10,30,22,03,4.30
2019,10,30,22,04,4.30
2019,10,30,22,05,4.30
2019,10,30,22,06,4.30
2019,10,30,22,07,4.20
2019,10,30,22,08,4.20
2019,10,30,22,09,4.20
2019,10,30,22,10,4.20
2019,10,30,22,11,4.10
2019,10,30,22,12,4.10
2019,10,30,22,13,4.10
2019,10,30,22,14,4.00
2019,10,30,22,15,4.00
2019,10,30,22,16,3.90
2019,10,30,22,17,3.90
2019,10,30,22,18,3.90
2019,10,30,22,19,3.90
2019,10,30,22,20,3.90
2019,10,30,22,21,3.90
2019,10,30,22,22,3.90
2019,10,30,22,23,3.90
2019,10,30,22,24,3.90
2019,10,30,22,25,3.80
2019,10,30,22,26,3.80
2019,10,30,22,27,3.80
2019,10,30,22,28,3.80
2019,10,30,22,29,3.80
2019,10,30,22,30,3.80
2019,10,30,22,31,3.80
2019,10,30,22,32,3.80
2019,10,30,22,33,3.80
2019,10,30,22,34,3.80
2019,10,30,22,35,3.80